• Join FlightAware (Why Join?)
  • Login
  • US Flag 
05:50PM EST


 

Airport Tracker/Info


-or-


 

Live Flight TrackerFlight Track Log ✈ JBU56 ✈ 02-Oct-2013 ✈ KIAD - KBOS

Flight Track Log - Related Links

Times and Time Zones

All times are in EDT time to prevent confusion due to time zone crossing. See the JBU56 flight status page for this flight to view local times or setup timezone preferences in your user account.

Time Position Orientation Groundspeed Altitude Reporting Facility
EDT Latitude Longitude Course Direction KTS MPH feet Rate Location/Type
09:13AM 38.9667 -77.5000 90° East 173 199 2,300  Level Potomac TRACON
09:14AM 39.0167 -77.5167 345° North 198 228 4,400 2,400 Climbing Potomac TRACON
09:15AM 39.0833 -77.5333 349° North 272 313 6,900 2,895 Climbing Potomac TRACON
09:16AM 39.1333 -77.4667 46° Northeast 298 343 9,900 1,289 Climbing Potomac TRACON
09:18AM 39.3045 -76.8442 78° East  Level Estimated
09:18AM 39.1428 -77.3178 85° East 283 326 10,100  Level Washington Center
09:19AM 39.3637 -76.7410 90° East  Level Estimated
09:19AM 39.1236 -77.1997 102° East 299 344 11,900  Level Washington Center
09:20AM 39.1042 -77.0869 102° East 326 375 13,700 2,331 Climbing Washington Center
09:21AM 39.0911 -76.9503 97° East 364 419 16,600 2,479 Climbing Washington Center
09:22AM 39.1031 -76.8086 84° East 379 436 18,700 1,296 Climbing Washington Center
09:27AM 39.1780 -75.9990 84° East 100 115 25,000 1,140 Climbing FlightAware
09:28AM 39.1920 -75.9090 79° East 444 511 25,600 720 Climbing FlightAware
09:28AM 39.2030 -75.8790 65° Northeast 444 511 25,600  Level FlightAware
09:29AM 39.2320 -75.7970 65° Northeast 444 511 25,600 2,182 Level FlightAware
09:29AM 39.2790 -75.7690 25° Northeast 440 506 27,600 3,867 Climbing FlightAware
09:30AM 39.3260 -75.7070 46° Northeast 448 516 28,500 1,938 Climbing FlightAware
09:30AM 39.3760 -75.6420 45° Northeast 441 507 29,700 1,373 Climbing FlightAware
09:31AM 39.4360 -75.5620 46° Northeast 439 505 30,400 500 Climbing FlightAware
09:32AM 39.4790 -75.5040 46° Northeast 439 505 30,400  Level FlightAware
09:32AM 39.5210 -75.4480 46° Northeast 439 505 30,400  Level FlightAware
09:33AM 39.5620 -75.3930 46° Northeast 439 505 30,400 507 Level FlightAware
09:33AM 39.6550 -75.2780 44° Northeast 439 505 31,000 493 Climbing FlightAware
09:34AM 39.7030 -75.2100 47° Northeast 468 539 31,000  Level FlightAware
09:35AM 39.7590 -75.1300 48° Northeast 462 532 31,000  Level FlightAware
09:35AM 39.8040 -75.0680 47° Northeast 462 532 31,000  Level FlightAware
09:36AM 39.8480 -75.0060 47° Northeast 462 532 31,000  Level FlightAware
09:36AM 39.8930 -74.9440 47° Northeast 462 532 31,000  Level FlightAware
09:37AM 39.9380 -74.8810 47° Northeast 462 532 31,000  Level FlightAware
09:38AM 39.9860 -74.8140 47° Northeast 462 532 31,000  Level FlightAware
09:38AM 40.0870 -74.6650 48° Northeast 462 532 31,000  Level FlightAware
09:39AM 40.1240 -74.6090 49° Northeast 472 543 31,000  Level FlightAware
09:39AM 40.1720 -74.5370 49° Northeast 472 543 31,000  Level FlightAware
09:40AM 40.2150 -74.4710 50° Northeast 472 543 31,000  Level FlightAware
09:41AM 40.2590 -74.4050 49° Northeast 472 543 31,000  Level FlightAware
09:41AM 40.3030 -74.3390 49° Northeast 472 543 31,000  Level FlightAware
09:42AM 40.3470 -74.2730 49° Northeast 472 543 31,000  Level FlightAware
09:42AM 40.3910 -74.2070 49° Northeast 472 543 31,000  Level FlightAware
09:43AM 40.4320 -74.1440 49° Northeast 472 543 31,000  Level FlightAware
09:44AM 40.4770 -74.0760 49° Northeast 472 543 31,000  Level FlightAware
09:44AM 40.5210 -74.0100 49° Northeast 472 543 31,000  Level FlightAware
09:45AM 40.5650 -73.9440 49° Northeast 472 543 31,000  Level FlightAware
09:45AM 40.6100 -73.8750 49° Northeast 472 543 31,000  Level FlightAware
09:46AM 40.6540 -73.8090 49° Northeast 472 543 31,000  Level FlightAware
09:47AM 40.6980 -73.7420 49° Northeast 472 543 31,000  Level FlightAware
09:47AM 40.7390 -73.6790 49° Northeast 472 543 31,000  Level FlightAware
09:48AM 40.7830 -73.6130 49° Northeast 472 543 31,000  Level FlightAware
09:48AM 40.8270 -73.5460 49° Northeast 472 543 31,000 -6,000 Level FlightAware
09:49AM 40.9528 -73.3003 49° Northeast 421 484 24,000 -4,723 Descending Boston Center
09:50AM 41.0267 -73.1883 49° Northeast 408 470 23,600 -508 Descending Boston Center
09:51AM 41.0878 -73.0569 58° Northeast 408 470 23,000 -303 Descending Boston Center
09:52AM 41.1469 -72.9253 59° Northeast 408 470 23,000  Level Boston Center
09:53AM 41.2097 -72.7961 57° Northeast 413 475 23,000  Level Boston Center
09:54AM 41.2789 -72.6472 58° Northeast 418 481 23,000  Level Boston Center
09:55AM 41.3397 -72.5119 59° Northeast 418 481 23,000 -50 Level Boston Center
09:56AM 41.4022 -72.3819 57° Northeast 418 481 22,900 -793 Descending Boston Center
09:57AM 41.4519 -72.2683 60° Northeast 411 473 21,400 -1,600 Descending Boston Center
09:58AM 41.5039 -72.1436 61° Northeast 399 459 19,700 -1,736 Descending Boston Center
09:59AM 41.5514 -72.0183 63° Northeast 378 435 17,900 -1,815 Descending Boston Center
10:00AM 41.5925 -71.8822 68° East 358 412 16,100 -1,412 Descending Boston Center
10:01AM 41.6253 -71.7708 68° East 353 406 15,100 -992 Descending Boston Center
10:02AM 41.6619 -71.6397 69° East 353 406 14,100 -1,008 Descending Boston Center
10:03AM 41.6964 -71.5225 68° East 343 395 13,100 -958 Descending Boston Center
10:04AM 41.7350 -71.4081 66° East 338 389 12,200 -942 Descending Boston Center
10:05AM 41.7797 -71.2986 61° Northeast 324 373 11,200 -595 Descending Boston Center
10:06AM 41.8206 -71.2061 59° Northeast 324 373 11,000 -99 Descending Boston Center
10:07AM 41.8692 -71.0908 60° Northeast 318 366 11,000  Level Boston Center
10:08AM 41.9167 -70.9667 63° Northeast 323 372 11,000  Level KA90
10:09AM 41.9667 -70.8667 56° Northeast 326 375 11,000 -359 Level KA90
10:10AM 42.0047 -70.7833 58° Northeast 308 354 10,300 -923 Descending Boston Center
10:11AM 42.0556 -70.6981 51° Northeast 296 341 9,200 -1,150 Descending Boston Center
10:12AM 42.1128 -70.6208 45° Northeast 290 334 8,000 -1,190 Descending Boston Center
10:13AM 42.1814 -70.6106 North 239 275 6,800 -1,289 Descending Boston Center
10:14AM 42.2503 -70.6114 359° North 239 275 5,400 -1,525 Descending Boston Center
10:15AM 42.3111 -70.6406 340° North 228 262 3,800 -1,210 Descending Boston Center
10:16AM 42.3661 -70.6894 327° Northwest 228 262 3,000 -422 Descending Boston Center
10:18AM 42.3833 -70.8167 280° West 165 190 2,500 -454 Descending KA90
10:19AM 42.3833 -70.8833 270° West 163 188 1,600 -818 Descending KA90
10:20AM 42.3667 -70.9500 251° West 123 142 700 -667 Descending KA90
10:21AM 42.3667 -70.9833 270° West 116 133 200 -545 Descending KA90